EHI
0 0 0 0 0 0 0 0 0 0 0 0 0 0 0 0 0 0 0 0 0 0 0 0 0 0 0 0 0 0 0 0 0 0 0 0 0 0 0 0 0 0 0
0 0 0 0 0 0 0 0 0 0 0 0 0 0 0 0 0 0 0 0 0 0 0 0 0 0 0 0 0 0 0 0 0 0 0 0 0 0 0 0 0 0 0
0 0 0 0 0 0 0 0 0 0 0 0 0 0 0 0 0 0 0 0 0 0 0 0 0 0 0 0 0 0 0 0 0 0 0 0 0 0 0 0 0 0 0
0 0 0 0 0 0 0 0 0 0 0 0 0 0 0 0 0 0 0 0 0 0 0 0 0 0 0 0 0 0 0 0 0 0 0 0 0 0 0 0 0 0 0
0 0 0 0 0 0 0 0 0 0 0 0 0 0 0 0 0 0 0 0 0 0 0 0 0 0 0 0 0 0 0 0 0 0 0 0 0 0 0 0 0 0 0
0 0 0 0 0 0 0 0 0 0 0 0 0 0 0 0 0 0 0 0 0 0 0 0 0 0 0 0 0 0 0 0 0 0 0 0 0 0 0 0 0 0 0
0 0 0 0 0 0 0 0 0 0 0 0 0 0 0 0 0 0 0 0 0 0 0 0 0 0 0 0 0 0 0 0 0 0 0 0 0 0 0 0 0 0 0
0 0 0 0 0 0 0 0 0 0 0 0 0 0 0 0 0 0 0 0 0 0 0 0 0 0 0 0 0 0 0 0 0 0 0 0 0 0 0 0 0 0 0
0 0 0 0 0 0 0 0 0 0 0 0 0 0 0 0 0 0 0 0 0 0 0 0 0 0 0 0 0 0 0 0 0 0 0 0 0 0 0 0 0 0 0
0 0 0 0 0 0 0 0 0 0 0 0 0 0 0 0 0 0 0 0 0 0 0 0 0 0 0 0 0 0 0 0 0 0 0 0 0 0 0 0 0 0 0
0 0 0 0 0 0 0 0 0 0 0 0 0 0 0 0 0 0 0 0 0 0 0 0 0 0 0 0 0 0 0 0 0 0 0 0 0 0 0 0 0 0 0
0 0 0 0 0 0 0 0 0 0 0 0 0 0 0 0 0 0 0 0 0 0 0 0 0 0 0 0 0 0 0 0 0 0 0 0 0 0 0 0 0 0 0
0 0 0 0 0 0 0 0 0 0 0 0 0 0 0 0 0 0 0 0 0 0 0 0 0 0 0 0 0 0 0 0 0 0 0 0 0 0 0 0 0 0 0
0 0 0 0 0 0 0 0 0 0 0 0 0 0 0 0 0 0 0 0 0 0 0 0 0 0 0 0 0 0 0 0 0 0 0 0 0 0 0 0 0 0 0
1 0 0 0 0 0 0 0 0 0 0 0 0 0 0 0 0 0 0 0 0 0 0 0 0 0 0 0 0 0 0 0 0 0 0 0 0 0 0 0 0 0 0
2 1 0 0 0 0 0 0 0 0 0 0 0 0 0 0 0 0 0 0 0 0 0 0 0 0 0 0 0 0 0 0 0 0 0 0 0 0 0 0 0 0 0
2 1 0 0 0 0 0 0 0 0 0 0 0 0 0 0 0 0 0 0 0 0 0 0 0 0 0 0 0 0 0 0 0 0 0 0 0 0 0 0 0 0 0
1 1 0 0 0 0 0 0 0 0 0 0 0 0 0 0 0 0 0 0 0 0 0 0 0 0 0 0 0 0 0 0 0 0 0 0 0 0 0 0 0 0 0
0 0 0 0 0 0 0 0 0 0 0 0 0 0 0 0 0 0 0 0 0 0 0 0 0 0 0 0 0 0 0 0 0 0 0 0 0 0 0 0 0 0 0
0 0 0 0 0 0 0 0 0 0 0 0 0 0 0 0 0 0 0 0 0 0 0 0 0 0 0 0 0 0 0 0 0 0 0 0 0 0 0 0 0 0 0
0 0 0 0 0 0 0 0 0 0 0 0 0 0 0 0 0 0 0 0 0 0 0 0 0 0 0 0 0 0 0 0 0 0 0 0 0 0 0 0 0 0 0
0 0 0 0 0 0 0 0 0 0 0 0 0 0 0 0 0 0 0 0 0 0 0 0 0 0 0 0 0 0 0 0 0 0 0 0 0 0 0 0 0 0 0
0 0 0 0 0 0 0 0 0 0 0 0 0 0 0 0 0 0 0 0 0 0 0 0 0 0 0 0 0 0 0 0 0 0 0 0 0 0 0 0 0 0 0
0 0 0 0 0 0 0 0 0 0 0 0 0 0 0 0 0 0 0 0 0 0 0 0 0 0 0 0 0 0 0 0 0 0 0 0 0 0 0 0 0 0 0
0 0 0 0 0 0 0 0 0 0 0 0 0 0 0 0 0 0 0 0 0 0 0 0 0 0 0 0 0 0 0 0 0 0 0 0 0 0 0 0 0 0 0
0 0 0 0 0 0 0 0 0 0 0 0 0 0 0 0 0 0 0 0 0 0 0 0 0 0 0 0 0 0 0 0 0 0 0 0 0 0 0 0 0 0 0
Wind_Speed
4 4 4 4 4 4 4 4 4 3 3 3 3 2 2 1 2 2 3 3 3 2 2 3 2 2 1 1 2 2 2 3 3 1 1 0 1 1 1 1 0 0 0
4 4 4 4 4 4 4 4 4 4 3 4 3 3 2 2 2 3 3 3 3 3 3 3 2 2 2 1 2 2 2 2 4 2 0 0 0 1 1 0 0 0 0
4 4 4 4 4 4 4 4 4 4 4 3 3 3 3 2 2 2 3 3 3 4 4 4 3 3 2 2 2 2 2 2 2 3 2 0 0 0 1 0 1 1 0
4 4 4 5 5 5 5 4 4 4 4 4 3 3 3 3 3 2 3 3 2 3 3 4 4 4 4 4 3 3 3 2 2 3 2 1 0 0 1 0 0 1 1
4 4 5 5 4 4 4 4 4 4 5 4 4 3 3 3 3 3 3 3 3 3 2 3 4 5 6 5 4 4 4 3 3 2 2 1 1 1 1 1 1 1 1
5 4 4 4 4 4 4 4 4 4 4 4 4 4 4 3 5 6 5 3 4 4 3 3 3 4 5 5 6 7 7 6 5 3 2 3 3 3 2 2 2 1 2
5 4 4 4 4 4 4 3 4 4 4 4 4 4 4 5 6 7 7 4 4 4 5 4 3 3 4 3 4 5 5 7 8 6 5 4 4 5 4 3 2 2 3
4 4 4 5 4 4 4 4 4 4 4 4 4 5 4 5 7 7 7 4 3 4 5 5 5 4 4 5 4 3 3 4 5 5 5 6 5 5 5 5 4 2 1
4 5 5 5 5 5 5 5 4 3 4 4 4 5 5 5 7 7 6 2 2 4 4 5 5 5 6 7 5 4 3 3 4 6 6 5 5 5 5 3 2 2 1
6 6 5 5 6 6 6 5 4 4 4 4 4 4 5 5 7 8 7 3 3 3 3 4 7 6 7 8 6 5 5 5 3 3 3 3 3 4 6 5 5 3 2
6 5 5 5 6 6 5 4 3 3 3 4 4 4 5 6 7 8 8 4 5 4 4 4 4 8 8 8 7 6 7 5 3 3 3 2 1 2 3 3 4 4 3
4 4 5 5 5 4 4 4 4 4 4 4 4 4 4 5 6 7 9 9 6 5 5 4 5 8 9 8 6 6 7 5 3 3 2 2 3 3 3 4 4 4 4
4 5 5 5 5 4 5 5 4 4 4 4 4 4 4 3 4 8 9 9 9 5 5 7 7 8 7 6 7 7 5 3 3 3 4 4 4 4 2 1 1 1 1
4 5 5 5 4 4 4 5 5 5 5 5 5 5 4 3 4 4 4 5 6 5 4 5 6 5 4 4 4 4 4 4 4 5 4 3 2 2 2 2 2 2 1
5 5 5 5 5 5 5 5 6 6 7 7 6 6 5 6 7 8 6 5 5 5 4 2 2 2 3 3 2 3 3 3 4 4 4 3 3 3 3 3 3 2 2
4 5 4 4 4 4 4 4 6 6 8 9 8 7 7 8 8 9 10 10 9 8 4 3 4 4 5 5 5 4 4 5 5 4 4 4 4 4 4 3 3 3 4
5 5 4 4 4 4 4 5 4 4 5 7 9 10 9 8 8 9 9 8 8 8 5 5 5 6 5 5 5 5 5 5 5 5 5 5 4 4 4 4 4 4 4
4 4 4 4 4 4 5 5 5 4 4 3 5 8 9 9 8 8 8 5 4 5 5 6 6 6 5 5 5 5 5 4 4 5 5 5 5 5 5 5 5 5 5
3 3 3 3 3 4 4 3 3 4 4 3 2 3 6 6 6 7 7 5 5 5 5 5 5 5 5 5 5 5 5 5 5 5 5 5 5 5 5 5 5 6 5
3 5 4 3 3 3 3 4 4 4 4 3 3 3 2 2 3 4 5 4 5 5 5 5 5 5 5 5 5 4 4 4 5 5 5 5 5 5 6 7 6 5 5
2 3 4 3 3 4 4 5 4 4 4 4 4 4 5 4 5 5 5 5 5 5 5 5 4 4 4 4 4 5 6 5 5 5 5 5 5 5 5 5 6 6 5
2 2 3 3 3 3 4 4 4 4 4 4 3 3 5 4 3 4 4 4 4 4 4 4 4 4 4 5 5 5 5 5 5 5 5 5 5 5 5 5 5 5 5
2 2 3 2 3 4 3 3 3 4 4 4 4 3 4 4 4 4 4 4 3 3 3 3 3 3 3 3 4 5 6 6 6 5 5 5 5 5 5 5 6 6 6
2 3 3 3 2 2 3 2 3 3 4 4 4 4 4 4 4 4 3 3 3 3 3 3 4 4 5 3 3 3 4 4 4 5 6 6 6 5 4 4 5 6 6
2 2 3 2 2 3 3 3 3 3 3 3 3 3 3 3 3 3 3 2 3 3 3 3 3 3 5 5 4 4 5 5 5 4 4 5 5 5 5 5 4 4 5
2 2 2 2 2 2 2 3 3 3 3 3 3 3 3 3 3 3 2 2 2 3 3 3 3 3 4 4 4 5 5 5 6 6 5 4 5 5 5 4 5 4 5
Wind_Direction
185 180 174 178 177 172 172 180 181 180 170 164 168 164 170 174 169 160 180 161 153 160 156 155 169 156 141 137 129 128 131 133 144 243 262 152 113 121 64 44 47 77 127
187 180 182 178 175 179 186 189 181 178 179 175 170 167 175 172 167 171 182 174 167 171 178 164 179 159 157 160 147 151 154 153 146 166 209 89 177 191 154 133 70 137 198
178 175 180 183 182 190 197 194 184 179 179 175 168 175 182 180 175 185 179 177 178 184 183 176 181 160 170 176 165 162 165 151 140 150 171 189 261 126 90 32 36 357 278
177 175 183 192 194 197 194 190 185 177 175 180 179 182 185 183 179 178 174 177 182 189 190 185 181 175 181 179 171 169 156 140 135 140 154 177 197 243 109 135 348 320 295
180 185 197 196 193 194 191 191 187 184 186 185 181 186 186 185 187 178 180 183 184 191 200 203 198 188 183 179 173 171 159 151 148 151 167 159 194 181 204 205 187 275 301
185 199 197 187 187 192 197 189 185 191 191 184 190 192 199 209 195 188 180 188 189 190 202 211 208 201 196 188 179 174 170 166 170 167 183 191 214 206 187 177 163 137 283
195 200 195 186 190 197 197 188 191 196 191 190 197 194 205 213 204 196 192 187 194 200 202 201 205 199 192 191 190 184 186 183 176 171 180 202 202 201 179 179 188 188 220
202 205 203 195 194 195 192 199 207 199 192 196 200 200 205 220 213 208 201 191 198 205 205 199 197 204 198 182 178 186 204 211 203 191 194 209 207 194 184 185 186 188 258
212 215 211 202 195 191 196 206 205 197 203 204 200 198 203 224 218 211 196 180 196 215 216 207 200 205 207 188 177 189 211 240 233 208 208 211 203 191 169 138 138 137 248
219 220 213 205 201 202 205 204 206 203 212 205 211 208 206 219 222 211 195 177 193 216 224 216 211 210 208 191 184 189 207 225 209 197 212 224 216 205 182 174 173 169 183
221 217 212 210 211 209 205 202 201 207 211 212 218 227 220 220 222 213 202 193 200 209 217 223 222 216 210 204 197 199 212 202 187 186 192 205 213 215 209 199 186 177 179
216 214 217 217 219 216 203 205 199 197 208 220 221 234 235 225 219 219 213 211 205 204 217 221 224 218 213 211 208 216 213 190 173 175 186 209 216 221 220 210 207 206 204
215 222 225 222 221 210 202 204 203 200 206 218 219 229 237 229 226 227 222 218 218 219 221 221 226 224 214 214 216 212 200 186 182 191 207 221 221 218 204 195 202 195 235
222 228 222 217 220 218 210 206 205 207 211 216 220 229 236 230 223 220 217 219 221 223 223 225 225 221 213 217 218 211 204 198 198 207 212 218 206 193 196 191 192 186 212
225 227 225 216 213 218 220 218 214 215 211 214 217 216 219 233 231 218 209 213 208 208 189 189 203 208 211 212 214 211 205 202 209 211 207 208 207 204 209 198 188 182 199
232 231 224 219 217 216 221 245 244 237 236 231 226 220 229 234 234 228 227 226 217 205 191 202 213 213 215 211 212 217 213 212 213 210 207 207 209 209 210 200 192 197 214
231 230 224 220 218 215 215 218 239 264 248 238 234 232 235 235 228 226 225 224 218 202 204 211 214 214 216 213 212 214 218 215 207 204 208 209 207 209 208 210 207 213 223
238 234 226 218 214 217 219 221 220 224 238 254 247 235 232 228 223 220 215 202 218 210 213 215 217 216 215 214 213 215 217 210 203 206 210 211 208 209 212 214 213 214 220
239 234 225 219 212 213 215 216 219 224 229 239 256 252 235 227 220 215 199 205 210 215 217 221 221 216 213 211 211 211 211 209 206 205 211 214 212 211 216 217 216 222 219
244 247 236 219 214 214 210 211 215 218 221 224 228 232 215 207 219 217 218 218 214 215 216 219 221 218 213 209 207 207 210 213 212 214 215 216 216 213 218 219 216 216 218
251 250 243 231 221 219 214 213 213 213 219 225 231 227 214 219 221 221 222 222 219 218 216 219 219 215 216 210 207 208 210 215 215 216 216 216 217 220 221 219 218 218 219
250 239 227 222 223 224 222 216 214 216 221 224 230 226 221 221 222 218 218 223 221 219 216 213 216 216 212 209 208 210 214 218 218 217 218 218 218 222 223 221 221 220 218
254 248 244 235 226 233 234 224 216 215 219 222 219 214 213 219 226 223 220 221 219 218 216 213 217 224 222 216 211 210 215 219 218 214 214 217 219 221 219 220 221 218 218
254 244 241 237 227 221 223 225 226 223 220 220 218 216 216 222 226 226 226 222 222 224 217 212 213 214 217 223 221 220 222 224 219 216 213 214 217 218 218 221 222 220 217
264 254 243 232 226 224 225 228 229 228 228 226 223 220 217 222 222 225 228 220 217 221 221 215 214 215 213 217 221 223 220 217 220 217 212 211 215 216 215 218 220 219 217
273 262 255 242 235 229 224 226 229 231 231 230 229 226 216 213 211 213 219 218 219 225 226 219 213 217 222 221 216 214 213 211 212 214 210 208 212 217 212 213 213 212 212